Starlink 5675

operational
NORAD ID: 55340 Int'l Des: 2023-013 Owner: SPXS Country: US Constellation: starlink
LEOCIRCULAR

关于 Starlink 5675

正在加载描述...

实时位置

正在加载3D地球...

即将过境

高度历史

Altitude vs Time

uPlot chart will show altitude changes over time

两行轨道根数

1 55340U 23013K 25352.48441055 -.00000387 00000-0 -13601-4 0 9999
2 55340 43.0056 21.6180 0001293 268.1405 91.9289 15.02534859159494
Epoch: Dec 18, 2025 • Age: 10 hours

当前状态

高度 559.5 km
速度 7.59 km/s
星下点 25.12°N, 1.15°E
发射日期 Jan 26, 2023
运行时间 2.8 years
类型 internet

技术详情

分类 Payload
质量 305.00 kg
干质量 290.00 kg
总质量 305.00 kg
长度 0.20 m
直径 2.80 m
跨度 9.00 m
形状 Box + pan
制造商 SPXS
平台类型 Starlink
阶段状态 In Orbit
所有者/国家 SPXS/US

大型星座

Loading constellations...